Theta_e
309 314 323 324 321 321 325 324 318 318 317 320 322 323 322 322 321 320 339 338 340 340 336 337 339 338 338 339 337 329 324 326 328 329 328 327 330 334 332 324 328 328 330 333 333 331 332 330 328
322 325 323 323 322 320 319 321 320 318 320 320 321 323 322 321 323 337 341 338 338 339 337 339 339 338 338 340 337 328 326 328 333 332 332 332 332 332 329 325 328 327 331 335 334 332 331 333 334
325 325 320 318 318 319 314 317 320 319 321 319 321 323 323 322 322 331 341 333 341 339 338 338 340 338 338 340 335 327 327 335 334 333 332 333 332 332 324 328 331 329 330 333 332 331 333 334 334
324 321 322 318 319 315 315 314 314 316 319 320 320 319 323 323 323 329 337 332 337 339 340 338 340 338 338 339 334 327 331 335 334 334 334 335 332 326 329 327 332 330 329 330 330 331 332 331 331
322 323 317 316 316 315 313 314 315 313 315 317 318 319 323 323 325 334 340 336 335 339 340 340 341 338 338 337 334 327 332 334 333 336 336 335 332 324 328 329 333 330 328 327 325 328 329 329 329
320 320 318 320 317 314 313 315 313 313 314 315 316 319 321 327 330 335 339 341 338 338 341 341 343 339 338 336 333 328 331 332 333 336 336 334 330 322 327 328 333 330 329 326 325 328 329 329 328
317 317 318 316 315 314 314 315 312 312 313 313 316 317 320 321 323 332 335 339 340 340 342 341 343 339 339 337 334 329 331 333 335 336 336 335 326 318 328 326 332 330 330 328 328 329 328 327 326
317 315 316 316 316 317 316 317 316 313 313 314 315 315 319 321 324 331 327 337 339 342 343 340 341 340 340 337 331 332 333 333 336 336 335 334 327 321 329 331 332 332 328 327 327 326 326 326 325
313 314 313 312 314 314 313 312 313 313 313 313 314 314 312 313 327 330 331 337 337 338 344 339 340 340 340 336 332 333 334 335 336 335 334 333 327 326 330 333 332 328 327 326 326 325 324 323 322
311 312 311 311 308 301 298 298 307 308 309 312 312 314 314 313 314 326 334 337 339 335 343 340 340 341 339 335 334 333 334 335 335 334 333 331 324 325 330 333 331 328 327 326 325 324 324 324 319
297 307 298 298 298 295 297 298 297 300 303 307 309 308 309 311 312 315 329 331 330 333 339 341 339 341 338 334 333 333 335 334 334 332 328 326 326 328 333 332 331 326 326 325 323 323 322 322 318
293 295 295 295 295 295 296 296 297 298 298 298 300 301 303 304 307 313 320 329 333 334 336 340 339 339 337 332 331 334 335 334 332 327 325 326 327 329 332 331 329 326 325 324 320 320 320 319 315
293 293 294 293 294 294 295 295 295 295 296 297 298 299 301 303 305 309 313 322 333 333 335 337 338 339 336 330 332 334 334 334 330 326 326 326 327 331 330 330 328 325 323 321 319 319 319 319 318
293 293 293 294 294 294 293 293 293 294 293 294 294 296 299 304 305 306 310 316 325 331 333 335 337 337 336 332 332 333 334 332 328 324 327 326 328 331 330 329 325 323 321 320 320 319 318 317 316
293 292 293 294 293 292 293 292 292 292 293 293 293 293 295 297 299 302 306 310 315 329 330 333 334 336 336 335 333 333 333 328 327 325 328 329 329 328 330 327 323 322 320 319 318 318 317 315 315
292 291 289 291 292 292 292 291 292 293 293 292 292 292 293 294 296 297 299 305 312 317 330 331 334 335 335 335 333 334 334 326 326 324 325 328 329 330 329 325 323 322 319 317 317 317 315 314 314
289 287 290 291 292 292 292 291 292 293 293 293 293 292 292 293 293 295 296 299 307 313 322 327 334 336 335 334 335 334 333 325 325 324 325 328 328 328 329 324 324 322 319 318 316 315 313 313 312
289 290 290 291 292 292 292 292 293 293 293 293 293 293 293 292 293 293 294 295 303 311 313 326 331 336 334 335 333 334 329 327 326 326 325 327 328 328 328 324 324 322 320 318 316 313 313 313 313
290 290 290 291 292 292 292 292 293 293 293 292 293 293 293 292 293 293 293 294 299 308 312 319 330 335 334 333 331 331 328 326 325 326 325 326 327 327 327 324 324 322 321 318 315 312 312 312 311
292 291 290 292 292 293 293 293 293 293 293 293 293 293 293 293 293 293 293 294 298 304 309 317 330 332 334 334 331 332 330 326 325 325 325 325 326 326 326 325 324 322 321 317 315 311 309 308 308
292 291 291 292 292 292 292 291 292 293 293 292 292 292 292 292 293 294 293 294 296 302 307 311 322 332 333 333 331 331 330 326 324 325 325 325 325 327 326 325 324 322 321 317 315 311 306 304 304
291 292 292 291 291 291 292 289 292 291 291 291 290 290 289 289 291 294 294 294 294 301 304 310 315 330 328 332 331 329 328 325 325 325 325 324 325 326 325 323 323 322 321 317 315 312 307 304 303
292 292 291 291 291 284 291 293 290 290 290 290 289 288 288 288 289 292 295 295 295 298 299 306 312 315 332 329 331 329 330 325 325 325 325 323 324 324 325 323 323 321 321 319 315 312 307 303 303
292 291 290 289 288 282 293 291 291 290 290 289 288 288 287 288 290 292 295 296 295 299 299 302 310 315 320 328 328 330 328 324 325 325 325 324 324 323 324 323 323 321 320 319 315 313 309 304 302
290 289 288 283 285 286 290 290 287 289 288 288 288 287 286 287 290 291 294 297 297 297 298 302 309 315 320 326 328 328 329 327 329 326 324 324 323 323 322 323 322 321 319 319 316 313 308 304 302
291 289 289 289 289 289 290 294 291 289 288 287 286 286 286 287 290 291 293 296 297 297 298 303 310 316 321 322 328 327 327 326 328 327 324 324 322 321 322 321 320 319 318 318 316 312 308 306 302
291 288 289 289 288 289 291 288 288 288 287 287 286 286 286 287 290 292 296 299 299 297 299 304 311 317 318 324 327 326 326 327 325 327 325 323 323 322 320 320 318 317 316 318 316 312 310 307 303
289 289 287 283 287 289 290 285 289 288 286 286 285 285 286 288 290 294 298 301 299 298 300 305 311 316 318 326 326 326 324 324 324 328 326 326 322 320 319 319 318 317 316 318 317 313 312 309 304
288 287 286 287 290 289 289 288 289 287 287 285 285 285 287 289 292 294 301 302 299 300 301 307 314 319 319 322 326 325 324 325 327 325 326 329 325 320 320 319 318 318 317 315 317 315 313 310 307
288 286 286 288 288 288 288 286 289 286 285 284 285 286 287 289 291 294 300 300 299 300 304 305 315 317 320 322 325 326 323 323 323 328 324 326 324 319 320 320 319 318 316 316 316 316 314 312 309
Wind_Speed
4 9 4 2 1 1 3 6 5 8 7 11 14 5 5 4 5 4 19 10 10 18 32 35 35 34 32 30 29 27 25 25 24 23 25 25 26 26 21 20 20 19 21 23 25 25 26 25 25
8 5 2 3 3 5 6 8 10 13 21 27 24 5 0 5 2 6 21 11 11 15 30 36 36 35 33 30 29 27 26 24 24 23 25 26 27 23 21 20 21 21 24 26 27 27 28 30 30
10 4 3 4 5 13 6 9 16 19 33 23 9 16 8 4 8 8 10 14 18 16 28 36 37 36 34 32 30 28 27 26 24 24 26 26 25 23 20 22 23 24 25 25 26 29 31 29 28
2 2 5 4 16 7 14 10 13 7 31 25 20 5 6 15 15 6 16 19 20 19 27 35 37 35 34 34 31 29 29 28 24 25 27 28 26 22 23 23 24 26 25 26 26 29 28 26 23
5 4 4 6 16 8 9 13 19 9 9 20 18 8 6 18 16 13 25 26 23 21 27 36 37 36 35 35 32 31 30 29 26 27 28 27 25 22 23 24 25 26 26 25 26 27 26 24 20
4 4 5 11 20 11 7 28 31 24 27 33 11 11 6 17 13 18 20 25 21 19 28 35 36 37 36 34 32 32 31 29 28 29 28 26 22 23 24 24 26 27 27 26 30 29 26 22 18
4 2 8 15 14 8 5 14 7 14 17 20 23 6 18 17 12 18 17 25 24 22 26 31 36 38 36 35 33 33 32 30 31 31 28 24 21 22 24 26 28 28 28 30 31 29 25 19 15
5 2 5 5 10 13 11 26 27 13 14 19 17 5 4 18 14 20 20 23 28 26 28 30 37 39 38 36 36 34 33 32 34 32 28 21 21 22 26 30 30 30 29 31 29 27 22 17 14
12 7 9 6 4 5 19 17 26 26 9 27 18 11 19 15 9 24 25 25 28 27 32 31 38 42 40 38 37 36 34 35 33 30 26 22 23 25 28 31 32 27 28 30 29 25 22 17 17
6 8 4 3 10 14 22 25 21 20 30 18 32 23 16 24 15 14 29 33 32 35 38 38 41 45 43 41 39 37 37 35 33 30 27 25 30 31 31 32 30 26 28 28 27 23 21 18 18
10 9 13 12 22 28 25 24 29 22 16 23 28 45 48 41 27 13 30 34 32 35 43 44 39 46 45 44 42 41 40 37 34 30 28 32 35 35 36 35 30 32 32 31 28 22 19 17 17
7 8 10 15 22 20 18 25 25 23 25 34 35 39 37 40 40 27 9 27 30 36 42 42 38 48 47 46 44 44 43 40 36 34 35 39 40 39 42 36 32 35 34 30 31 25 20 18 19
4 8 18 27 25 23 27 19 20 29 28 29 31 31 34 35 36 35 25 15 30 35 38 42 42 46 51 49 48 46 43 41 39 36 38 40 43 45 41 36 33 33 35 35 30 25 23 21 20
8 16 24 26 27 20 15 16 19 21 32 35 37 32 29 28 31 36 33 16 14 35 39 41 43 44 52 51 52 49 46 42 40 37 42 42 45 46 40 37 37 38 35 32 28 27 25 23 23
18 14 15 7 19 20 28 11 11 26 29 31 32 35 32 30 30 32 36 31 16 26 39 43 45 48 53 53 53 52 49 44 43 41 45 43 45 44 44 41 41 37 35 33 30 29 26 28 31
4 3 7 12 16 14 17 17 17 21 22 27 34 43 37 36 36 34 35 36 26 13 38 43 48 51 55 56 54 55 51 46 46 43 46 43 47 46 45 44 39 36 35 32 34 32 32 35 33
3 6 16 14 14 17 12 23 21 26 21 21 28 33 43 42 40 39 34 36 34 21 24 42 46 54 58 55 55 57 52 49 50 44 45 43 44 45 44 44 39 36 34 34 35 32 33 36 34
13 15 11 18 20 15 18 22 23 27 22 22 25 32 39 43 46 41 39 38 35 25 19 39 49 54 60 56 56 58 54 52 53 47 45 46 47 47 48 45 41 38 35 38 37 36 36 36 37
8 12 15 21 19 19 17 24 25 25 25 22 24 25 33 40 49 43 42 39 36 31 21 32 49 51 63 62 55 62 60 60 57 49 47 47 44 48 49 47 43 40 39 40 39 39 40 38 37
9 14 20 21 11 20 24 27 24 19 21 26 27 26 28 35 46 41 42 36 37 34 22 27 44 53 69 69 57 64 64 60 60 53 50 51 48 51 50 49 44 42 41 42 42 42 43 39 38
12 16 14 22 33 20 19 13 6 3 11 20 27 18 17 25 37 43 41 34 37 37 21 21 41 55 54 71 64 60 63 59 63 55 54 53 50 52 51 47 43 41 40 44 44 42 41 43 39
16 10 22 28 19 8 5 5 5 10 11 15 24 26 28 31 32 23 31 40 36 37 21 22 28 48 64 67 66 61 66 58 62 61 59 55 52 54 53 49 45 42 40 43 41 40 38 38 39
17 16 28 26 17 3 4 4 4 7 13 20 21 31 34 33 31 34 30 38 41 42 29 23 18 39 55 70 70 67 66 58 64 64 61 57 55 53 54 51 48 43 41 41 40 40 39 37 36
15 16 24 7 3 3 4 2 3 7 14 19 24 30 34 39 38 35 30 30 39 41 32 32 18 29 35 52 55 74 61 57 69 67 64 61 58 55 53 49 47 46 43 41 40 37 37 36 32
9 15 8 7 5 4 4 10 2 7 16 16 20 35 41 40 36 36 30 25 35 40 41 29 17 26 35 41 68 65 70 64 71 71 67 65 62 56 55 55 51 46 44 41 38 37 36 35 33
5 4 1 6 6 14 20 3 4 12 18 24 34 39 39 39 35 33 33 28 28 39 36 27 18 25 33 44 61 59 67 69 71 69 68 64 59 60 58 54 49 47 44 41 37 37 36 34 32
5 7 8 5 9 7 4 5 4 23 31 33 41 43 43 40 36 30 25 25 26 37 36 25 18 26 30 38 58 54 65 65 62 67 66 63 60 63 59 56 51 47 45 39 38 38 38 35 32
2 4 6 4 5 9 6 7 6 27 32 28 31 37 45 43 34 26 23 19 27 33 34 23 19 30 32 41 57 52 59 57 70 71 66 57 56 61 62 59 54 49 44 40 38 39 37 36 33
3 4 3 3 4 4 6 6 9 24 22 28 29 41 41 38 29 29 16 14 29 28 28 23 23 31 32 35 50 52 58 57 58 63 59 57 56 61 64 61 56 51 46 42 40 40 39 36 34
9 3 3 3 4 4 3 6 13 23 22 30 32 37 41 39 34 26 12 21 22 29 32 22 24 30 32 34 39 50 50 52 61 57 50 47 54 61 63 61 57 52 48 45 42 42 40 37 35
Wind_Direction
155 150 121 137 54 161 224 242 248 277 271 242 265 221 163 265 245 224 137 178 181 170 176 174 173 173 171 169 164 160 159 156 153 151 150 148 145 139 133 127 125 124 124 125 124 122 120 117 116
149 124 130 254 169 232 241 219 245 234 242 251 269 253 263 266 322 160 151 193 200 178 178 175 175 174 172 171 166 161 158 157 155 153 151 148 146 141 135 128 131 132 128 125 123 121 117 116 113
149 132 193 170 209 228 220 200 228 249 255 257 243 239 207 199 271 192 185 188 196 180 181 178 176 175 174 173 169 163 160 158 158 157 154 152 148 142 137 135 138 137 135 128 124 121 120 118 114
98 202 239 222 236 247 231 242 240 271 280 281 268 254 206 234 244 222 194 180 197 182 183 181 177 176 177 173 171 166 163 162 161 161 157 152 149 142 139 144 143 140 140 135 126 126 126 124 124
234 245 243 240 244 248 258 247 266 285 285 282 300 246 207 199 221 170 182 184 192 185 183 182 178 177 179 176 173 169 168 164 164 163 158 154 150 146 145 149 148 144 145 142 135 134 130 128 131
238 218 235 242 248 250 249 255 259 271 270 276 273 265 221 177 176 167 181 182 200 198 179 182 179 180 181 179 177 173 171 168 166 164 161 158 153 151 149 151 151 146 142 138 138 136 135 138 137
225 278 239 265 272 278 289 272 248 265 276 285 287 218 246 227 207 183 188 185 200 207 182 181 182 183 183 182 180 176 173 171 168 166 163 159 155 156 153 152 155 150 142 135 138 135 136 135 130
235 250 241 248 268 285 247 273 288 13 312 326 308 252 199 239 223 192 202 191 191 208 185 180 187 185 185 183 181 177 175 171 169 168 168 168 162 160 155 155 156 148 142 137 140 139 136 140 139
245 248 260 279 295 295 329 332 317 313 333 325 324 350 343 5 212 206 190 186 187 204 188 183 189 187 185 183 181 178 176 173 171 171 171 170 169 160 160 159 156 151 142 143 145 146 146 142 139
192 238 278 319 343 350 342 338 345 339 327 325 327 295 324 347 13 239 194 190 188 194 195 185 189 189 187 183 181 180 177 176 177 178 181 178 168 165 163 161 157 148 146 147 146 150 152 153 141
332 272 331 319 336 340 327 323 326 324 312 323 317 315 311 314 327 360 217 206 202 204 202 191 189 193 188 185 183 183 179 179 179 181 181 174 166 166 164 162 158 148 147 145 147 156 153 152 145
324 315 344 323 332 334 324 321 315 306 304 305 306 305 309 311 304 312 312 225 211 201 207 195 193 193 189 187 184 185 181 180 179 181 174 172 167 169 166 166 158 152 150 150 149 151 148 146 135
292 331 322 316 317 314 309 305 299 293 306 309 317 315 304 303 304 290 293 288 213 208 206 198 199 196 193 190 187 186 185 181 180 180 173 174 171 169 168 164 157 156 153 153 158 157 153 149 140
281 304 307 312 312 318 335 318 326 324 325 321 317 315 313 305 299 291 284 278 253 212 209 205 203 201 194 189 190 188 187 184 182 178 175 176 173 173 172 169 158 158 155 154 165 165 161 149 144
294 296 282 289 342 322 338 306 297 307 315 312 311 309 308 310 307 298 283 278 285 235 215 209 211 201 199 191 193 192 190 184 180 178 178 179 180 179 173 168 164 164 163 167 169 163 160 148 145
299 332 348 314 303 308 323 293 293 297 299 299 299 299 301 300 299 298 293 278 271 261 225 213 211 199 203 196 195 194 191 184 178 182 186 184 180 173 170 170 170 174 171 170 168 166 156 150 151
353 301 306 312 305 298 298 291 295 298 287 284 289 290 292 291 291 293 296 289 267 272 244 215 207 201 202 196 194 196 191 183 178 182 186 188 183 184 178 176 178 180 173 172 171 166 160 151 147
299 313 286 294 305 308 299 286 291 293 287 277 274 281 283 286 282 287 292 293 269 263 248 222 212 200 199 187 187 193 188 182 180 182 187 189 188 187 183 182 184 183 180 176 174 169 164 159 154
280 291 286 290 301 298 294 291 289 290 283 274 261 262 273 278 282 282 282 286 277 259 259 231 213 203 195 187 177 187 182 176 180 182 187 188 192 188 189 184 187 186 185 177 176 175 171 166 166
309 308 296 292 290 301 298 289 291 287 280 276 268 257 257 271 281 278 278 276 273 264 253 251 218 206 192 195 183 189 183 177 182 185 186 189 191 190 192 190 189 190 184 179 179 181 172 172 172
316 300 295 297 310 297 277 288 295 349 33 8 5 352 347 319 275 273 273 268 269 256 258 262 225 210 202 194 184 182 183 176 180 185 184 191 192 193 192 196 196 194 191 183 183 184 183 175 175
315 297 304 305 317 303 39 291 38 342 356 354 347 344 334 326 314 294 286 264 262 253 258 269 244 224 219 178 182 178 178 172 179 182 184 189 192 195 197 198 198 195 198 189 188 189 190 185 175
298 321 308 304 292 91 15 247 333 342 350 344 338 335 327 319 310 302 284 270 255 252 263 264 267 236 209 198 186 184 184 175 180 183 184 185 191 197 195 199 198 199 201 195 193 190 192 189 184
334 327 306 320 66 25 218 32 44 5 340 330 328 326 324 321 316 305 284 281 252 245 258 267 263 241 229 194 188 191 185 173 179 181 181 184 188 195 196 198 197 199 200 200 196 194 193 191 190
352 352 345 2 5 254 316 334 207 6 352 337 329 322 324 321 309 302 291 295 253 248 249 257 257 229 222 210 189 188 188 183 187 188 184 184 187 191 197 200 202 202 199 201 198 195 191 191 191
331 43 335 305 316 304 307 266 208 8 344 338 335 329 324 317 306 297 277 267 239 248 247 250 247 218 222 214 185 187 179 186 190 188 189 190 191 191 195 199 198 199 198 200 197 194 191 190 192
335 2 289 261 260 273 257 325 286 352 352 341 331 327 321 315 310 299 279 274 226 233 237 238 238 210 218 206 185 188 188 187 192 192 192 190 189 190 194 199 197 195 195 198 196 194 192 190 190
81 326 344 346 321 312 298 316 321 350 335 333 328 324 320 319 315 307 295 268 213 218 233 236 226 204 208 202 193 190 180 178 185 192 189 188 191 191 192 197 197 194 195 198 197 195 192 191 191
344 2 302 248 280 308 305 315 5 342 326 326 319 318 322 322 325 321 308 221 205 206 224 230 214 203 204 204 189 186 177 186 191 190 189 190 195 193 193 197 197 196 193 196 198 197 194 192 193
94 337 295 316 317 281 297 273 352 337 329 321 318 326 332 339 334 328 358 178 199 203 216 232 210 204 204 198 192 192 179 188 189 195 191 197 194 193 193 197 197 196 195 195 198 197 196 194 195